Regional Weather Roundup
Issued by NWS Upton, NY

Current Version | Previous Version | Text Only | Print | Product List | Glossary On
Versions: 1 2 3 4 5 6 7 8 9 10 11 12 13 14 15 16 17 18 19 20 21 22 23 24 25 26
000 ASUS41 KOKX 280304 RWROKX REGIONAL WEATHER ROUNDUP NATIONAL WEATHER SERVICE NEW YORK NY 1100 PM EDT WED APR 27 2016 NOTE: "FAIR" INDICATES FEW OR NO CLOUDS BELOW 12,000 FEET WITH NO SIGNIFICANT WEATHER AND/OR OBSTRUCTIONS TO VISIBILITY. NYZ071-072-176-178-NJZ106-104-280400- NEW YORK CITY METRO AREA CITY SKY/WX TMP DP RH WIND PRES REMARKS CENTRAL PARK CLEAR 54 43 66 W6 29.93R LAGUARDIA APRT PTCLDY 56 44 64 SW5 29.90R KENNEDY INTL PTCLDY 51 46 83 SW12 29.92R NEWARK/LIBERTY PTCLDY 53 44 71 SW10 29.91R BRNX BOT. GARD N/A 54 43 66 W12 29.90F TETERBORO CLEAR 53 43 68 S3 29.90R $$ NYZ177-179-078>081-280400- LONG ISLAND NEW YORK CITY SKY/WX TMP DP RH WIND PRES REMARKS FARMINGDALE CLEAR 49 44 83 SW5 29.91R ISLIP PTCLDY 48 42 80 SW7 29.90S SHIRLEY CLEAR 49 41 74 SW6 29.91S RIVERHEAD N/A 46 41 81 CALM 29.89S WESTHAMPTON CLEAR 45 40 82 SW6 29.91S EAST HAMPTON FAIR 45 39 79 SW5 29.89S MONTAUK POINT N/A 47 39 74 SW6 29.90S $$ NYZ052-065-067-280400- HUDSON VALLEY CITY SKY/WX TMP DP RH WIND PRES REMARKS WHITE PLAINS CLEAR 46 42 86 CALM 29.89R NEWBURGH CLEAR 54 41 62 CALM 29.90R MONTGOMERY PTCLDY 45 36 70 N3 29.89R POUGHKEEPSIE CLOUDY 54 28 36 N7 29.89R ALBANY PTCLDY 45 15 30 NW10 29.94S $$ NJZ001-105-106-008-010-013-015-019>022-104-280400- NEW JERSEY CITY SKY/WX TMP DP RH WIND PRES REMARKS NEWARK/LIBERTY PTCLDY 53 44 71 SW10 29.91R TETERBORO CLEAR 53 43 68 S3 29.90R CALDWELL CLEAR 52 44 74 SW3 29.91R MORRISTOWN CLEAR 46 43 87 CALM 29.92R SOMERVILLE CLEAR 46 42 86 CALM 29.90R SUSSEX CLEAR 49 44 83 SW3 29.92R ANDOVER N/A 49 45 86 CALM 29.91R TRENTON CLOUDY 50 44 80 CALM 29.92R MILLVILLE CLOUDY 46 43 89 CALM 29.93F ATLANTIC CITY CLOUDY 47 44 90 CALM 29.92F WRIGHTSTOWN CLOUDY 46 45 94 S2 29.90S TOMS RIVER CLOUDY 45 39 81 CALM 29.93S BELMAR PTCLDY 46 45 93 SW3 29.93S $$ PAZ047>061-062-071-280400- EASTERN PENNSYLVANIA CITY SKY/WX TMP DP RH WIND PRES REMARKS PHILADELPHIA CLOUDY 53 45 74 W7 29.93F ALLENTOWN CLEAR 49 44 83 W5 29.93R SCRANTON PTCLDY 48 32 53 CALM 29.93R $$ CTZ002-004>006-009-010-012-RIZ004-006-007-MAZ004-011-015-280400- SOUTHERN NEW ENGLAND IN CT CITY SKY/WX TMP DP RH WIND PRES REMARKS BRADLEY INTL PTCLDY 51 33 50 NW3 29.88R HARTFORD CLEAR 50 41 71 SE5 29.88R DANBURY PTCLDY 49 42 77 W3 29.90R WTRBRY/OXFORD N/A 46 39 76 CALM 29.90R BRIDGEPORT CLEAR 51 44 77 SW8 29.89S MERIDEN CLEAR 46 39 76 N5 29.89R NEW HAVEN CLEAR 50 44 80 VRB6 29.89S CHESTER FAIR 46 41 81 SW7 29.88S GROTON CLEAR 47 42 83 W7 29.89R WILLIMANTIC CLEAR 49 39 68 CALM 29.88R IN RI CITY SKY/WX TMP DP RH WIND PRES REMARKS PROVIDENCE CLEAR 46 38 73 W10 29.88R BLOCK ISLAND CLEAR 46 41 82 W10 29.89S WESTERLY CLEAR 48 37 65 W3 29.89R IN MA CITY SKY/WX TMP DP RH WIND PRES REMARKS BOSTON PTCLDY 51 33 50 W10 29.85R WORCESTER CLEAR 49 20 31 W14 29.86R WESTFIELD CLEAR 49 24 37 N8 29.88R PROVINCETOWN CLEAR 45 39 79 SW13 29.86R NANTUCKET CLEAR 46 41 82 SW15 29.88R $$ ANZ330-335-338-340-345-350-353-355-280400- COASTAL MARINE OBSERVATIONS STATION/POSITION TIME SKY/WX TEMP WIND PRES VSBY WAVE AIR SEA DIR/SP/G HT/PER (UTC) (F) (DEG/KT/KT) (MB) (MI) (FT/S) NY HARB ENTRANCE 0150 51 52 210/ 12/ 16 1012.1 3/ 7 20S FIRE ISLAND 0150 48 49 220/ 12/ 14 1012.4 3/ 8 GREAT SOUTH BAY 0200 51 59 240/ 12/ 16 N/A 23 SSW MONTAUK P 0250 47 47 240/ 10/ 12 1012.2 3/ 8 15 E BARNEGAT LI 0222 51 N/A 3/ 7 HUDSON CANYON 0150 47 49 1012.7 3/ 7 KINGS POINT 0200 55 1012.0 EXECUTION ROCKS NOT AVBL CENTRAL LI SOUND 0200 50 240/ 10/ 12 N/A 1/ 3 EASTERN LI SOUND 0200 48 47 270/ 4/ 6 N/A ROBBINS REEF 0200 1011.7 $$ >>>>>>>>>>>>>>>>>>>>>>>>>>>> KEY <<<<<<<<<<<<<<<<<<<<<<<<<<< > < > SKY/WX - SKY CONDITION/PRESENT WEATHER < > TMP - TEMPERATURE IN FAHRENHEIT < > DP - DEWPOINT IN FAHRENHEIT < > RH - RELATIVE HUMIDITY IN PERCENT < > WIND - DIRECTION AND SPEED IN MPH < > PRES - MEAN SEA LEVEL PRESSURE IN INCHES OF HG < > WCI - WIND CHILL INDEX < > VSB - VISIBILITY IN MILES < > HX - HEAT INDEX < > TC - TEMPERATURE IN CELSIUS < > VRB - VARIABLE WIND DIRECTION < > < >>>>>>>>>>>>>>>>>>>>>>>>>>>> KEY <<<<<<<<<<<<<<<<<<<<<<<<<<<

USA.gov is the U.S. government's official web portal to all federal, state and local government web resources and services.